Location: Unspecified
(49.9820°N, 20.4363°E)
Time: 22:50:56
(UTC+02:00)

Vanguard 1 Rocket - All Passes

Search period start: 15 May 2026 00:00
Search period end: 25 May 2026 00:00
Orbit: 655 x 4212 km, 34.3° (Epoch: 14 May)

Date Brightness Start Highest point End Pass type
(mag) Time Alt. Az. Time Alt. Az. Time Alt. Az.
15 May - 14:47:16 10° S 14:54:04 23° SE 15:04:32 10° E daylight
15 May - 17:08:30 10° SW 17:18:52 42° SSE 17:37:11 10° ESE daylight
15 May - 19:32:38 10° WSW 19:46:19 42° SSW 20:07:49 10° SE daylight
15 May - 22:00:02 10° W 22:14:35 26° SW 22:32:48 10° S visible
16 May - 13:39:08 10° SSE 13:42:30 13° SE 13:46:36 10° ESE daylight
16 May - 15:57:27 10° SW 16:05:57 35° SSE 16:20:44 10° ESE daylight
16 May - 18:20:27 10° WSW 18:32:13 43° S 18:52:20 10° ESE daylight
16 May - 20:46:01 10° W 21:00:15 33° SSW 21:20:17 10° SSE visible
16 May - 23:18:59 10° WSW 23:27:49 14° SW 23:37:33 10° SSW visible
17 May - 14:47:04 10° SSW 14:53:44 25° SSE 15:04:18 10° E daylight
17 May - 17:08:47 10° WSW 17:18:41 41° S 17:36:18 10° ESE daylight
17 May - 19:33:04 10° WSW 19:45:59 38° SSW 20:06:13 10° SE daylight
17 May - 22:01:17 10° WSW 22:13:54 21° SW 22:29:33 10° S visible
18 May - 13:38:01 10° SSE 13:42:06 15° SE 13:47:24 10° ESE daylight
18 May - 15:57:38 10° SW 16:05:47 36° SSE 16:20:05 10° ESE daylight
18 May - 18:20:51 10° WSW 18:32:01 40° S 18:51:05 10° SE daylight
18 May - 20:46:47 10° W 20:59:46 28° SSW 21:17:53 10° SSE visible
19 May - 14:47:02 10° SSW 14:53:31 27° SSE 15:03:59 10° ESE daylight
19 May - 17:09:09 10° WSW 17:18:34 40° S 17:35:20 10° ESE daylight
19 May - 19:33:39 10° WSW 19:45:41 33° SSW 20:04:21 10° SSE daylight
19 May - 22:03:22 10° WSW 22:13:18 16° SW 22:25:12 10° S visible
20 May - 13:37:27 10° S 13:41:49 17° SE 13:47:46 10° ESE daylight
20 May - 15:57:54 10° SW 16:05:42 36° SSE 16:19:24 10° ESE daylight
20 May - 18:21:20 10° WSW 18:31:54 36° S 18:49:38 10° SE daylight
20 May - 20:47:54 10° WSW 20:59:22 23° SSW 21:14:55 10° S visible
21 May - 14:47:10 10° SSW 14:53:25 28° SSE 15:03:37 10° ESE daylight
21 May - 17:09:35 10° WSW 17:18:32 37° S 17:34:15 10° SE daylight
21 May - 19:34:26 10° WSW 19:45:27 28° SSW 20:02:09 10° SSE daylight
21 May - 22:07:54 10° WSW 22:12:47 11° SW 22:18:09 10° SSW visible
22 May - 13:37:10 10° S 13:41:38 18° SSE 13:47:55 10° ESE daylight
22 May - 15:58:17 10° SW 16:05:42 34° S 16:18:39 10° ESE daylight
22 May - 18:21:58 10° WSW 18:31:48 32° SSW 18:47:58 10° SE daylight
22 May - 20:49:38 10° WSW 20:59:01 18° SW 21:11:09 10° S visible
23 May - 14:47:24 10° SW 14:53:24 28° SSE 15:03:12 10° ESE daylight
23 May - 17:10:07 10° WSW 17:18:33 34° S 17:33:03 10° SE daylight
23 May - 19:35:30 10° WSW 19:45:17 23° SSW 19:59:29 10° SSE daylight
24 May - 13:37:07 10° SSW 13:41:35 20° SSE 13:47:56 10° ESE daylight
24 May - 15:58:44 10° WSW 16:05:47 32° S 16:17:50 10° ESE daylight
24 May - 18:22:45 10° WSW 18:31:46 27° SSW 18:46:02 10° SSE daylight
24 May - 20:52:51 10° WSW 20:58:44 13° SW 21:05:40 10° SSW visible
